Location: Unspecified
(0.0000°N, 0.0000°E)
Time: 18:55:45
(UTC+00:00)

X-37B - Pass Details

Date: 30 June 2022
Orbit: 326 x 345 km, 45.0° (Epoch: 25 June)

Event Time Altitude Azimuth Distance (km) Brightness Sun altitude
Exits shadow 04:21:33 28° 74° (ENE) 668 2.4 -23.3°
Drops below altitude 10° 04:23:35 10° 113° (ESE) 1,285 3.7 -22.9°
Sets 04:25:43 0° 124° (SE) 2,128 4.8 -22.4°
